Location: Newark
(50.9000°N, 14.8333°E)
Time: 19:11:54
(UTC+00:00)

N. Korean satellite - Pass Details

Date: 02 November 2020
Orbit: 453 x 503 km, 97.2° (Epoch: 04 December)

Event Time Altitude Azimuth Distance (km) Brightness Sun altitude
Rises 04:18:39 0° 18° (NNE) 2,481 10.3 -15.5°
Reaches altitude 10° 04:20:45 10° 25° (NNE) 1,602 9.4 -15.2°
Maximum altitude 04:24:03 44° 99° (E) 640 7.7 -14.7°
Drops below altitude 10° 04:27:20 10° 173° (S) 1,593 9.3 -14.1°
Sets 04:29:26 0° 180° (S) 2,466 10.2 -13.8°
